Time,TemperatureF,DewpointF,PressureIn,WindDirection,WindDirectionDegrees,WindSpeedMPH,WindSpeedGustMPH,Humidity,HourlyPrecipIn,Conditions,Clouds,dailyrainin,SoftwareType,DateUTC
2013-07-14 00:01:00,75.2,73.3,29.97,East,98,0.0,7.0,94,0.00,,,0.00,WeatherCatV1.15B25,2013-07-14 04:01:00,
2013-07-14 00:02:00,75.2,73.3,29.97,ESE,119,4.0,5.0,94,0.00,,,0.00,WeatherCatV1.15B25,2013-07-14 04:02:00,
2013-07-14 00:07:00,75.2,73.3,29.97,East,99,1.0,4.0,94,0.00,,,0.00,WeatherCatV1.15B25,2013-07-14 04:07:00,
2013-07-14 00:12:00,75.2,73.3,29.97,East,94,2.0,6.0,94,0.00,,,0.00,WeatherCatV1.15B25,2013-07-14 04:12:00,
2013-07-14 00:17:00,75.2,73.3,29.97,ESE,122,0.0,1.0,94,0.00,,,0.00,WeatherCatV1.15B25,2013-07-14 04:17:00,
2013-07-14 00:22:00,75.1,73.2,29.97,ESE,113,0.0,3.0,94,0.00,,,0.00,WeatherCatV1.15B25,2013-07-14 04:22:00,
2013-07-14 00:27:00,75.1,73.2,29.97,East,84,1.0,4.0,94,0.00,,,0.00,WeatherCatV1.15B25,2013-07-14 04:27:00,
2013-07-14 00:32:00,75.1,73.2,29.97,SE,127,1.0,4.0,94,0.00,,,0.00,WeatherCatV1.15B25,2013-07-14 04:32:00,
2013-07-14 00:37:00,75.0,73.1,29.97,East,99,0.0,3.0,94,0.00,,,0.00,WeatherCatV1.15B25,2013-07-14 04:37:00,
2013-07-14 00:42:00,75.0,73.1,29.97,ESE,117,1.0,3.0,94,0.00,,,0.00,WeatherCatV1.15B25,2013-07-14 04:42:00,
2013-07-14 00:47:00,74.9,73.1,29.97,ESE,113,0.0,4.0,94,0.00,,,0.00,WeatherCatV1.15B25,2013-07-14 04:47:00,
2013-07-14 00:52:00,74.9,73.1,29.97,ESE,119,4.0,4.0,94,0.00,,,0.00,WeatherCatV1.15B25,2013-07-14 04:52:00,
2013-07-14 00:57:00,74.8,72.6,29.97,East,100,0.0,5.0,93,0.00,,,0.00,WeatherCatV1.15B25,2013-07-14 04:57:00,
2013-07-14 01:02:00,74.8,72.6,29.97,East,94,2.0,6.0,93,0.00,,,0.00,WeatherCatV1.15B25,2013-07-14 05:02:00,
2013-07-14 01:07:00,74.8,72.6,29.97,East,94,4.0,4.0,93,0.00,,,0.00,WeatherCatV1.15B25,2013-07-14 05:07:00,
2013-07-14 01:12:00,74.7,72.5,29.97,ESE,123,2.0,2.0,93,0.00,,,0.00,WeatherCatV1.15B25,2013-07-14 05:12:00,
2013-07-14 01:17:00,74.7,72.5,29.97,ESE,117,0.0,3.0,93,0.00,,,0.00,WeatherCatV1.15B25,2013-07-14 05:17:00,
2013-07-14 01:22:00,74.6,72.4,29.97,ESE,106,0.0,4.0,93,0.00,,,0.00,WeatherCatV1.15B25,2013-07-14 05:22:00,
2013-07-14 01:24:00,74.7,72.5,29.97,ENE,75,1.0,5.0,93,0.00,,,0.00,WeatherCatV1.15B25,2013-07-14 05:24:00,
2013-07-14 01:26:00,74.6,72.4,29.96,SE,136,0.0,4.0,93,0.00,,,0.00,WeatherCatV1.15B25,2013-07-14 05:26:00,
2013-07-14 01:30:00,74.6,72.8,29.96,ESE,105,0.0,2.0,94,0.00,,,0.00,WeatherCatV1.15B25,2013-07-14 05:30:00,
2013-07-14 01:35:00,74.6,72.4,29.96,ESE,121,1.0,5.0,93,0.00,,,0.00,WeatherCatV1.15B25,2013-07-14 05:35:00,
2013-07-14 01:40:00,74.5,72.7,29.96,ESE,104,1.0,6.0,94,0.00,,,0.00,WeatherCatV1.15B25,2013-07-14 05:40:00,
2013-07-14 01:45:00,74.5,72.7,29.96,East,93,0.0,2.0,94,0.00,,,0.00,WeatherCatV1.15B25,2013-07-14 05:45:00,
2013-07-14 01:50:00,74.4,72.6,29.96,ESE,114,1.0,1.0,94,0.00,,,0.00,WeatherCatV1.15B25,2013-07-14 05:50:00,
2013-07-14 01:55:00,74.4,72.6,29.97,East,86,2.0,2.0,94,0.00,,,0.00,WeatherCatV1.15B25,2013-07-14 05:55:00,
2013-07-14 02:00:00,74.4,72.2,29.96,ESE,117,0.0,2.0,93,0.00,,,0.00,WeatherCatV1.15B25,2013-07-14 06:00:00,
2013-07-14 02:05:00,74.3,72.1,29.96,ESE,109,0.0,2.0,93,0.00,,,0.00,WeatherCatV1.15B25,2013-07-14 06:05:00,
2013-07-14 02:10:00,74.3,72.1,29.96,East,91,0.0,4.0,93,0.00,,,0.00,WeatherCatV1.15B25,2013-07-14 06:10:00,
2013-07-14 02:15:00,74.2,72.4,29.96,East,100,2.0,3.0,94,0.00,,,0.00,WeatherCatV1.15B25,2013-07-14 06:15:00,
2013-07-14 02:20:00,74.2,72.0,29.96,ESE,121,0.0,4.0,93,0.00,,,0.00,WeatherCatV1.15B25,2013-07-14 06:20:00,
2013-07-14 02:25:00,74.2,72.0,29.96,ESE,107,1.0,5.0,93,0.00,,,0.00,WeatherCatV1.15B25,2013-07-14 06:25:00,
2013-07-14 02:30:00,74.1,71.9,29.95,ESE,112,2.0,5.0,93,0.00,,,0.00,WeatherCatV1.15B25,2013-07-14 06:30:00,
2013-07-14 02:35:00,74.1,71.9,29.96,East,98,0.0,5.0,93,0.00,,,0.00,WeatherCatV1.15B25,2013-07-14 06:35:00,
2013-07-14 02:40:00,74.0,71.8,29.95,South,171,1.0,2.0,93,0.00,,,0.00,WeatherCatV1.15B25,2013-07-14 06:40:00,
2013-07-14 02:45:00,74.0,72.2,29.95,SE,138,0.0,1.0,94,0.00,,,0.00,WeatherCatV1.15B25,2013-07-14 06:45:00,
2013-07-14 02:50:00,73.9,72.1,29.95,ESE,110,0.0,5.0,94,0.00,,,0.00,WeatherCatV1.15B25,2013-07-14 06:50:00,
2013-07-14 02:55:00,73.8,72.0,29.95,NE,47,0.0,4.0,94,0.00,,,0.00,WeatherCatV1.15B25,2013-07-14 06:55:00,
2013-07-14 03:00:00,73.8,72.0,29.95,ESE,117,0.0,4.0,94,0.00,,,0.00,WeatherCatV1.15B25,2013-07-14 07:00:00,
2013-07-14 03:05:00,73.7,71.9,29.95,SE,125,0.0,5.0,94,0.00,,,0.00,WeatherCatV1.15B25,2013-07-14 07:05:00,
2013-07-14 03:10:00,73.7,71.9,29.95,ESE,121,1.0,1.0,94,0.00,,,0.00,WeatherCatV1.15B25,2013-07-14 07:10:00,
2013-07-14 03:15:00,73.7,71.9,29.95,ESE,117,1.0,5.0,94,0.00,,,0.00,WeatherCatV1.15B25,2013-07-14 07:15:00,
2013-07-14 03:20:00,73.6,71.8,29.95,East,88,1.0,2.0,94,0.00,,,0.00,WeatherCatV1.15B25,2013-07-14 07:20:00,
2013-07-14 03:25:00,73.6,71.8,29.94,ENE,78,0.0,4.0,94,0.00,,,0.00,WeatherCatV1.15B25,2013-07-14 07:25:00,
2013-07-14 03:30:00,73.6,71.8,29.94,East,101,0.0,5.0,94,0.00,,,0.00,WeatherCatV1.15B25,2013-07-14 07:30:00,
2013-07-14 03:35:00,73.6,71.8,29.94,East,90,1.0,4.0,94,0.00,,,0.00,WeatherCatV1.15B25,2013-07-14 07:35:00,
2013-07-14 03:40:00,73.5,71.7,29.94,East,90,0.0,2.0,94,0.00,,,0.00,WeatherCatV1.15B25,2013-07-14 07:40:00,
2013-07-14 03:45:00,73.5,71.7,29.94,East,84,0.0,2.0,94,0.00,,,0.00,WeatherCatV1.15B25,2013-07-14 07:45:00,
2013-07-14 03:50:00,73.5,71.7,29.94,East,84,0.0,2.0,94,0.00,,,0.00,WeatherCatV1.15B25,2013-07-14 07:50:00,
2013-07-14 03:55:00,73.5,71.7,29.95,ESE,111,0.0,2.0,94,0.00,,,0.00,WeatherCatV1.15B25,2013-07-14 07:55:00,
2013-07-14 04:00:00,73.5,71.7,29.95,East,96,0.0,1.0,94,0.00,,,0.00,WeatherCatV1.15B25,2013-07-14 08:00:00,
2013-07-14 04:05:00,73.5,71.7,29.94,ESE,113,1.0,2.0,94,0.00,,,0.00,WeatherCatV1.15B25,2013-07-14 08:05:00,
2013-07-14 04:10:00,73.5,71.7,29.94,ESE,103,0.0,3.0,94,0.00,,,0.00,WeatherCatV1.15B25,2013-07-14 08:10:00,
2013-07-14 04:15:00,73.5,71.7,29.94,East,90,2.0,3.0,94,0.00,,,0.00,WeatherCatV1.15B25,2013-07-14 08:15:00,
2013-07-14 04:20:00,73.5,71.7,29.94,ESE,113,1.0,5.0,94,0.00,,,0.00,WeatherCatV1.15B25,2013-07-14 08:20:00,
2013-07-14 04:25:00,73.4,71.6,29.94,ESE,103,1.0,4.0,94,0.00,,,0.00,WeatherCatV1.15B25,2013-07-14 08:25:00,
2013-07-14 04:30:00,73.5,71.7,29.94,East,86,0.0,5.0,94,0.00,,,0.00,WeatherCatV1.15B25,2013-07-14 08:30:00,
2013-07-14 04:35:00,73.5,71.7,29.94,East,101,1.0,4.0,94,0.00,,,0.00,WeatherCatV1.15B25,2013-07-14 08:35:00,
2013-07-14 04:40:00,73.5,71.7,29.94,ESE,109,0.0,4.0,94,0.00,,,0.00,WeatherCatV1.15B25,2013-07-14 08:40:00,
2013-07-14 04:45:00,73.4,71.6,29.94,East,100,2.0,2.0,94,0.00,,,0.00,WeatherCatV1.15B25,2013-07-14 08:45:00,
2013-07-14 04:50:00,73.5,71.7,29.94,ENE,76,4.0,5.0,94,0.00,,,0.00,WeatherCatV1.15B25,2013-07-14 08:50:00,
2013-07-14 04:55:00,73.4,71.6,29.94,ESE,114,0.0,0.0,94,0.00,,,0.00,WeatherCatV1.15B25,2013-07-14 08:55:00,
2013-07-14 05:00:00,73.4,71.6,29.94,ESE,108,1.0,5.0,94,0.00,,,0.00,WeatherCatV1.15B25,2013-07-14 09:00:00,
2013-07-14 05:05:00,73.4,71.6,29.94,East,98,2.0,2.0,94,0.00,,,0.00,WeatherCatV1.15B25,2013-07-14 09:05:00,
2013-07-14 05:10:00,73.4,71.6,29.94,ESE,117,0.0,6.0,94,0.00,,,0.00,WeatherCatV1.15B25,2013-07-14 09:10:00,
2013-07-14 05:15:00,73.4,71.6,29.94,East,88,4.0,5.0,94,0.00,,,0.00,WeatherCatV1.15B25,2013-07-14 09:15:00,
2013-07-14 05:20:00,73.4,71.6,29.95,East,90,2.0,2.0,94,0.00,,,0.01,WeatherCatV1.15B25,2013-07-14 09:20:00,
2013-07-14 05:25:00,73.4,71.6,29.95,East,95,2.0,2.0,94,0.00,,,0.01,WeatherCatV1.15B25,2013-07-14 09:25:00,
2013-07-14 05:30:00,73.4,71.6,29.95,ENE,73,1.0,3.0,94,0.00,,,0.01,WeatherCatV1.15B25,2013-07-14 09:30:00,
2013-07-14 05:35:00,73.4,71.6,29.95,East,94,1.0,1.0,94,0.00,,,0.01,WeatherCatV1.15B25,2013-07-14 09:35:00,
2013-07-14 05:40:00,73.4,71.6,29.95,East,99,0.0,2.0,94,0.00,,,0.01,WeatherCatV1.15B25,2013-07-14 09:40:00,
2013-07-14 05:45:00,73.4,71.6,29.95,ENE,67,2.0,5.0,94,0.00,,,0.01,WeatherCatV1.15B25,2013-07-14 09:45:00,
2013-07-14 05:50:00,73.3,71.5,29.95,East,85,0.0,3.0,94,0.00,,,0.01,WeatherCatV1.15B25,2013-07-14 09:50:00,
2013-07-14 05:55:00,73.3,71.5,29.95,East,99,2.0,2.0,94,0.00,,,0.01,WeatherCatV1.15B25,2013-07-14 09:55:00,
2013-07-14 06:00:00,73.3,71.5,29.95,ESE,108,4.0,5.0,94,0.00,,,0.01,WeatherCatV1.15B25,2013-07-14 10:00:00,
2013-07-14 06:05:00,73.3,71.5,29.96,East,91,1.0,4.0,94,0.00,,,0.01,WeatherCatV1.15B25,2013-07-14 10:05:00,
2013-07-14 06:10:00,73.3,71.5,29.96,ESE,105,1.0,4.0,94,0.00,,,0.01,WeatherCatV1.15B25,2013-07-14 10:10:00,
2013-07-14 06:15:00,73.3,71.5,29.96,ESE,111,1.0,2.0,94,0.00,,,0.01,WeatherCatV1.15B25,2013-07-14 10:15:00,
2013-07-14 06:20:00,73.2,71.4,29.96,East,90,0.0,2.0,94,0.00,,,0.01,WeatherCatV1.15B25,2013-07-14 10:20:00,
2013-07-14 06:25:00,73.3,71.5,29.96,ESE,113,5.0,5.0,94,0.00,,,0.01,WeatherCatV1.15B25,2013-07-14 10:25:00,
2013-07-14 06:30:00,73.3,71.5,29.96,East,100,0.0,4.0,94,0.00,,,0.01,WeatherCatV1.15B25,2013-07-14 10:30:00,
2013-07-14 06:35:00,73.3,71.5,29.96,ENE,66,5.0,5.0,94,0.00,,,0.01,WeatherCatV1.15B25,2013-07-14 10:35:00,
2013-07-14 06:40:00,73.3,71.5,29.96,East,97,0.0,2.0,94,0.00,,,0.01,WeatherCatV1.15B25,2013-07-14 10:40:00,
2013-07-14 06:45:00,73.2,71.4,29.96,East,84,4.0,5.0,94,0.00,,,0.01,WeatherCatV1.15B25,2013-07-14 10:45:00,
2013-07-14 06:50:00,73.2,71.4,29.96,East,92,1.0,4.0,94,0.00,,,0.01,WeatherCatV1.15B25,2013-07-14 10:50:00,
2013-07-14 06:55:00,73.3,71.5,29.96,East,79,0.0,4.0,94,0.00,,,0.01,WeatherCatV1.15B25,2013-07-14 10:55:00,
2013-07-14 07:00:00,73.3,71.5,29.96,ESE,106,5.0,5.0,94,0.00,,,0.01,WeatherCatV1.15B25,2013-07-14 11:00:00,
2013-07-14 07:05:00,73.4,71.6,29.97,East,90,1.0,5.0,94,0.00,,,0.01,WeatherCatV1.15B25,2013-07-14 11:05:00,
2013-07-14 07:10:00,73.5,71.7,29.97,East,93,0.0,5.0,94,0.00,,,0.01,WeatherCatV1.15B25,2013-07-14 11:10:00,
2013-07-14 07:15:00,73.6,71.8,29.97,East,99,1.0,7.0,94,0.00,,,0.01,WeatherCatV1.15B25,2013-07-14 11:15:00,
2013-07-14 07:20:00,73.8,72.0,29.97,ESE,109,0.0,4.0,94,0.00,,,0.01,WeatherCatV1.15B25,2013-07-14 11:20:00,
2013-07-14 07:25:00,74.0,72.2,29.97,SE,128,2.0,7.0,94,0.00,,,0.01,WeatherCatV1.15B25,2013-07-14 11:25:00,
2013-07-14 07:30:00,74.3,72.5,29.97,ENE,78,0.0,0.0,94,0.00,,,0.01,WeatherCatV1.15B25,2013-07-14 11:30:00,
2013-07-14 07:35:00,74.4,72.2,29.98,East,86,2.0,4.0,93,0.00,,,0.01,WeatherCatV1.15B25,2013-07-14 11:35:00,
2013-07-14 07:40:00,74.6,72.4,29.98,ESE,119,0.0,5.0,93,0.00,,,0.01,WeatherCatV1.15B25,2013-07-14 11:40:00,
2013-07-14 07:45:00,74.7,72.5,29.98,ESE,108,3.0,4.0,93,0.00,,,0.01,WeatherCatV1.15B25,2013-07-14 11:45:00,
2013-07-14 07:50:00,74.8,72.6,29.98,ESE,115,1.0,4.0,93,0.00,,,0.01,WeatherCatV1.15B25,2013-07-14 11:50:00,
2013-07-14 07:55:00,74.9,72.7,29.98,East,101,2.0,6.0,93,0.00,,,0.01,WeatherCatV1.15B25,2013-07-14 11:55:00,
2013-07-14 08:00:00,75.3,73.1,29.98,SSE,156,1.0,1.0,93,0.00,,,0.01,WeatherCatV1.15B25,2013-07-14 12:00:00,
2013-07-14 08:05:00,75.8,73.6,29.99,ENE,62,2.0,2.0,93,0.00,,,0.01,WeatherCatV1.15B25,2013-07-14 12:05:00,
2013-07-14 08:10:00,76.1,73.6,29.99,East,86,2.0,3.0,92,0.00,,,0.01,WeatherCatV1.15B25,2013-07-14 12:10:00,
2013-07-14 08:15:00,76.4,73.9,29.99,South,178,0.0,6.0,92,0.00,,,0.01,WeatherCatV1.15B25,2013-07-14 12:15:00,
2013-07-14 08:20:00,76.5,73.7,30.00,East,88,5.0,6.0,91,0.00,,,0.01,WeatherCatV1.15B25,2013-07-14 12:20:00,
2013-07-14 08:25:00,76.6,73.8,30.00,ESE,118,4.0,5.0,91,0.00,,,0.01,WeatherCatV1.15B25,2013-07-14 12:25:00,
2013-07-14 08:30:00,76.9,73.7,30.00,SE,146,0.0,3.0,90,0.00,,,0.01,WeatherCatV1.15B25,2013-07-14 12:30:00,
2013-07-14 08:35:00,76.9,74.1,30.00,East,92,2.0,2.0,91,0.00,,,0.01,WeatherCatV1.15B25,2013-07-14 12:35:00,
2013-07-14 08:40:00,77.0,73.8,30.00,East,98,3.0,4.0,90,0.00,,,0.01,WeatherCatV1.15B25,2013-07-14 12:40:00,
2013-07-14 08:45:00,77.2,74.0,30.00,ESE,113,4.0,4.0,90,0.00,,,0.01,WeatherCatV1.15B25,2013-07-14 12:45:00,
2013-07-14 08:50:00,77.2,74.0,30.00,ESE,111,1.0,5.0,90,0.00,,,0.01,WeatherCatV1.15B25,2013-07-14 12:50:00,
2013-07-14 08:55:00,77.4,74.2,30.00,ENE,63,4.0,4.0,90,0.00,,,0.01,WeatherCatV1.15B25,2013-07-14 12:55:00,
2013-07-14 09:00:00,77.6,74.4,30.01,SE,131,2.0,4.0,90,0.00,,,0.01,WeatherCatV1.15B25,2013-07-14 13:00:00,
2013-07-14 09:05:00,77.9,74.4,30.00,ENE,76,1.0,4.0,89,0.00,,,0.01,WeatherCatV1.15B25,2013-07-14 13:05:00,
2013-07-14 09:10:00,78.0,74.5,30.01,SSE,161,0.0,1.0,89,0.00,,,0.01,WeatherCatV1.15B25,2013-07-14 13:10:00,
2013-07-14 09:15:00,78.1,74.6,30.01,South,169,0.0,2.0,89,0.00,,,0.01,WeatherCatV1.15B25,2013-07-14 13:15:00,
2013-07-14 09:20:00,78.1,74.6,30.00,East,84,0.0,6.0,89,0.00,,,0.01,WeatherCatV1.15B25,2013-07-14 13:20:00,
2013-07-14 09:25:00,78.3,74.8,30.00,SSE,149,0.0,1.0,89,0.00,,,0.01,WeatherCatV1.15B25,2013-07-14 13:25:00,
2013-07-14 09:30:00,78.5,75.0,30.00,ESE,115,1.0,1.0,89,0.00,,,0.01,WeatherCatV1.15B25,2013-07-14 13:30:00,
2013-07-14 09:35:00,78.7,75.2,30.00,ESE,117,0.0,2.0,89,0.00,,,0.01,WeatherCatV1.15B25,2013-07-14 13:35:00,
2013-07-14 09:40:00,79.0,75.5,30.00,ESE,112,0.0,2.0,89,0.00,,,0.01,WeatherCatV1.15B25,2013-07-14 13:40:00,
2013-07-14 09:45:00,79.1,75.2,30.01,SE,130,0.0,0.0,88,0.00,,,0.01,WeatherCatV1.15B25,2013-07-14 13:45:00,
2013-07-14 09:50:00,79.3,75.4,30.01,SE,132,0.0,2.0,88,0.00,,,0.01,WeatherCatV1.15B25,2013-07-14 13:50:00,
2013-07-14 09:55:00,79.5,75.6,30.01,South,169,1.0,1.0,88,0.00,,,0.01,WeatherCatV1.15B25,2013-07-14 13:55:00,
2013-07-14 10:00:00,79.6,75.4,30.01,ENE,69,0.0,3.0,87,0.00,,,0.01,WeatherCatV1.15B25,2013-07-14 14:00:00,
2013-07-14 10:05:00,79.8,75.6,30.01,SSE,163,0.0,0.0,87,0.00,,,0.01,WeatherCatV1.15B25,2013-07-14 14:05:00,
2013-07-14 10:10:00,79.8,75.6,30.01,SE,139,0.0,1.0,87,0.00,,,0.01,WeatherCatV1.15B25,2013-07-14 14:10:00,
2013-07-14 10:15:00,79.9,75.7,30.02,SSE,160,0.0,1.0,87,0.00,,,0.01,WeatherCatV1.15B25,2013-07-14 14:15:00,
2013-07-14 10:20:00,80.0,75.8,30.02,SE,128,0.0,5.0,87,0.00,,,0.01,WeatherCatV1.15B25,2013-07-14 14:20:00,
2013-07-14 10:25:00,80.2,75.6,30.02,East,84,2.0,4.0,86,0.00,,,0.01,WeatherCatV1.15B25,2013-07-14 14:25:00,
2013-07-14 10:30:00,80.5,76.3,30.02,East,85,0.0,0.0,87,0.00,,,0.01,WeatherCatV1.15B25,2013-07-14 14:30:00,
2013-07-14 10:35:00,80.9,76.3,30.02,East,86,0.0,1.0,86,0.00,,,0.01,WeatherCatV1.15B25,2013-07-14 14:35:00,
2013-07-14 10:40:00,81.3,76.3,30.02,ENE,74,2.0,5.0,85,0.00,,,0.01,WeatherCatV1.15B25,2013-07-14 14:40:00,
2013-07-14 10:45:00,81.8,76.5,30.02,South,190,0.0,4.0,84,0.00,,,0.01,WeatherCatV1.15B25,2013-07-14 14:45:00,
2013-07-14 10:50:00,82.3,76.6,30.02,East,80,1.0,5.0,83,0.00,,,0.01,WeatherCatV1.15B25,2013-07-14 14:50:00,
2013-07-14 10:55:00,82.9,76.8,30.02,SE,128,3.0,4.0,82,0.00,,,0.01,WeatherCatV1.15B25,2013-07-14 14:55:00,
2013-07-14 11:00:00,83.6,77.1,30.02,SSE,167,1.0,5.0,81,0.00,,,0.01,WeatherCatV1.15B25,2013-07-14 15:00:00,
2013-07-14 11:05:00,84.2,77.3,30.02,SSE,160,0.0,4.0,80,0.00,,,0.01,WeatherCatV1.15B25,2013-07-14 15:05:00,
2013-07-14 11:10:00,85.0,77.7,30.02,ESE,119,0.0,4.0,79,0.00,,,0.01,WeatherCatV1.15B25,2013-07-14 15:10:00,
2013-07-14 11:16:00,85.9,77.4,30.02,SSE,161,1.0,4.0,76,0.00,,,0.01,WeatherCatV1.15B25,2013-07-14 15:16:00,
2013-07-14 11:21:00,86.3,77.8,30.02,South,184,1.0,4.0,76,0.00,,,0.01,WeatherCatV1.15B25,2013-07-14 15:21:00,
2013-07-14 11:26:00,85.9,77.4,30.02,ESE,114,0.0,1.0,76,0.00,,,0.01,WeatherCatV1.15B25,2013-07-14 15:26:00,
2013-07-14 11:31:00,85.4,76.9,30.02,South,178,2.0,4.0,76,0.00,,,0.01,WeatherCatV1.15B25,2013-07-14 15:31:00,
2013-07-14 11:36:00,84.9,77.2,30.02,South,177,0.0,1.0,78,0.00,,,0.01,WeatherCatV1.15B25,2013-07-14 15:36:00,
2013-07-14 11:41:00,84.7,76.7,30.02,South,171,0.0,2.0,77,0.00,,,0.01,WeatherCatV1.15B25,2013-07-14 15:41:00,
2013-07-14 11:46:00,84.2,76.6,30.02,SSE,167,0.0,1.0,78,0.00,,,0.01,WeatherCatV1.15B25,2013-07-14 15:46:00,
2013-07-14 11:51:00,83.8,75.4,30.02,South,173,2.0,5.0,76,0.00,,,0.01,WeatherCatV1.15B25,2013-07-14 15:51:00,
2013-07-14 11:56:00,83.2,74.0,30.03,SSW,199,3.0,5.0,74,0.00,,,0.01,WeatherCatV1.15B25,2013-07-14 15:56:00,
2013-07-14 12:01:00,82.5,74.1,30.03,South,191,1.0,2.0,76,0.00,,,0.01,WeatherCatV1.15B25,2013-07-14 16:01:00,
2013-07-14 12:06:00,81.7,74.5,30.03,SSE,165,2.0,5.0,79,0.00,,,0.01,WeatherCatV1.15B25,2013-07-14 16:06:00,
2013-07-14 12:11:00,80.9,74.5,30.04,SSE,165,0.0,2.0,81,0.00,,,0.01,WeatherCatV1.15B25,2013-07-14 16:11:00,
2013-07-14 12:16:00,80.5,73.7,30.03,SSE,163,1.0,1.0,80,0.00,,,0.01,WeatherCatV1.15B25,2013-07-14 16:16:00,
2013-07-14 12:21:00,80.5,73.7,30.03,South,180,0.0,4.0,80,0.00,,,0.01,WeatherCatV1.15B25,2013-07-14 16:21:00,
2013-07-14 12:26:00,80.6,74.2,30.03,ESE,109,0.0,3.0,81,0.00,,,0.01,WeatherCatV1.15B25,2013-07-14 16:26:00,
2013-07-14 12:31:00,81.0,74.2,30.03,SSE,158,0.0,2.0,80,0.00,,,0.01,WeatherCatV1.15B25,2013-07-14 16:31:00,
2013-07-14 12:36:00,82.0,75.2,30.04,SSW,210,1.0,4.0,80,0.00,,,0.01,WeatherCatV1.15B25,2013-07-14 16:36:00,
2013-07-14 12:41:00,83.1,76.6,30.04,SSW,200,2.0,6.0,81,0.00,,,0.01,WeatherCatV1.15B25,2013-07-14 16:41:00,
2013-07-14 12:46:00,83.9,76.3,30.04,South,187,0.0,5.0,78,0.00,,,0.01,WeatherCatV1.15B25,2013-07-14 16:46:00,
2013-07-14 12:51:00,84.6,76.6,30.04,SE,139,2.0,5.0,77,0.00,,,0.01,WeatherCatV1.15B25,2013-07-14 16:51:00,
2013-07-14 12:56:00,85.3,77.2,30.04,SE,146,1.0,2.0,77,0.00,,,0.01,WeatherCatV1.15B25,2013-07-14 16:56:00,
2013-07-14 13:01:00,86.0,76.7,30.03,South,181,0.0,6.0,74,0.00,,,0.01,WeatherCatV1.15B25,2013-07-14 17:01:00,
2013-07-14 13:06:00,86.8,78.7,30.03,SW,216,0.0,2.0,77,0.00,,,0.01,WeatherCatV1.15B25,2013-07-14 17:06:00,
2013-07-14 13:11:00,87.3,77.1,30.03,ESE,121,1.0,2.0,72,0.00,,,0.01,WeatherCatV1.15B25,2013-07-14 17:11:00,
2013-07-14 13:16:00,87.7,77.5,30.03,SSW,197,1.0,8.0,72,0.00,,,0.01,WeatherCatV1.15B25,2013-07-14 17:16:00,
2013-07-14 13:21:00,88.1,78.3,30.02,SSW,198,0.0,4.0,73,0.00,,,0.01,WeatherCatV1.15B25,2013-07-14 17:21:00,
2013-07-14 13:26:00,88.6,78.0,30.02,West,274,0.0,4.0,71,0.00,,,0.01,WeatherCatV1.15B25,2013-07-14 17:26:00,
2013-07-14 13:31:00,89.0,78.3,30.02,West,263,2.0,5.0,71,0.00,,,0.01,WeatherCatV1.15B25,2013-07-14 17:31:00,
2013-07-14 13:36:00,89.5,80.1,30.02,SSW,207,1.0,5.0,74,0.00,,,0.01,WeatherCatV1.15B25,2013-07-14 17:36:00,
2013-07-14 13:41:00,89.9,78.3,30.02,South,171,6.0,7.0,69,0.00,,,0.01,WeatherCatV1.15B25,2013-07-14 17:41:00,
2013-07-14 13:46:00,89.5,77.9,30.02,SSE,153,0.0,5.0,69,0.00,,,0.01,WeatherCatV1.15B25,2013-07-14 17:46:00,
2013-07-14 13:51:00,89.5,77.1,30.02,South,190,0.0,8.0,67,0.00,,,0.01,WeatherCatV1.15B25,2013-07-14 17:51:00,
2013-07-14 13:56:00,89.4,76.0,30.02,SSW,194,6.0,6.0,65,0.00,,,0.01,WeatherCatV1.15B25,2013-07-14 17:56:00,
2013-07-14 14:01:00,89.2,75.4,30.03,SE,141,5.0,7.0,64,0.00,,,0.01,WeatherCatV1.15B25,2013-07-14 18:01:00,
2013-07-14 14:06:00,88.7,75.4,30.03,South,176,2.0,6.0,65,0.00,,,0.01,WeatherCatV1.15B25,2013-07-14 18:06:00,
2013-07-14 14:11:00,88.2,76.7,30.02,West,273,1.0,2.0,69,0.00,,,0.01,WeatherCatV1.15B25,2013-07-14 18:11:00,
2013-07-14 14:16:00,88.5,76.1,30.02,SSW,207,4.0,7.0,67,0.00,,,0.01,WeatherCatV1.15B25,2013-07-14 18:16:00,
2013-07-14 14:21:00,88.7,76.7,30.02,SSW,194,3.0,4.0,68,0.00,,,0.01,WeatherCatV1.15B25,2013-07-14 18:21:00,
2013-07-14 14:26:00,88.6,77.1,30.01,SSE,163,1.0,6.0,69,0.00,,,0.01,WeatherCatV1.15B25,2013-07-14 18:26:00,
2013-07-14 14:31:00,88.8,77.7,30.01,SSW,200,1.0,7.0,70,0.00,,,0.01,WeatherCatV1.15B25,2013-07-14 18:31:00,
2013-07-14 14:36:00,88.9,76.9,30.01,ESE,104,1.0,5.0,68,0.00,,,0.01,WeatherCatV1.15B25,2013-07-14 18:36:00,
2013-07-14 14:41:00,88.9,76.9,30.01,SSW,201,2.0,6.0,68,0.00,,,0.01,WeatherCatV1.15B25,2013-07-14 18:41:00,
2013-07-14 14:46:00,88.9,76.9,30.01,South,189,1.0,7.0,68,0.00,,,0.01,WeatherCatV1.15B25,2013-07-14 18:46:00,
2013-07-14 14:51:00,89.3,76.4,30.02,SSW,205,0.0,6.0,66,0.00,,,0.01,WeatherCatV1.15B25,2013-07-14 18:51:00,
2013-07-14 14:56:00,89.7,77.7,30.02,SSW,197,6.0,6.0,68,0.00,,,0.01,WeatherCatV1.15B25,2013-07-14 18:56:00,
2013-07-14 15:01:00,89.7,77.2,30.02,South,187,0.0,7.0,67,0.00,,,0.01,WeatherCatV1.15B25,2013-07-14 19:01:00,
2013-07-14 15:06:00,89.0,77.5,30.02,SSW,209,2.0,6.0,69,0.00,,,0.01,WeatherCatV1.15B25,2013-07-14 19:06:00,
2013-07-14 15:11:00,88.3,77.2,30.01,SSW,192,4.0,6.0,70,0.00,,,0.01,WeatherCatV1.15B25,2013-07-14 19:11:00,
2013-07-14 15:16:00,87.7,77.1,30.01,South,178,0.0,4.0,71,0.00,,,0.01,WeatherCatV1.15B25,2013-07-14 19:16:00,
2013-07-14 15:21:00,87.2,76.6,30.02,South,173,0.0,7.0,71,0.00,,,0.01,WeatherCatV1.15B25,2013-07-14 19:21:00,
2013-07-14 15:26:00,87.0,76.4,30.01,SSW,205,0.0,4.0,71,0.00,,,0.01,WeatherCatV1.15B25,2013-07-14 19:26:00,
2013-07-14 15:31:00,86.8,76.2,30.01,South,174,0.0,5.0,71,0.00,,,0.01,WeatherCatV1.15B25,2013-07-14 19:31:00,
2013-07-14 15:36:00,86.8,76.7,30.01,SSE,155,1.0,5.0,72,0.00,,,0.01,WeatherCatV1.15B25,2013-07-14 19:36:00,
2013-07-14 15:41:00,86.8,77.5,30.01,South,178,2.0,3.0,74,0.00,,,0.01,WeatherCatV1.15B25,2013-07-14 19:41:00,
2013-07-14 15:46:00,87.0,77.3,30.01,East,96,2.0,3.0,73,0.00,,,0.01,WeatherCatV1.15B25,2013-07-14 19:46:00,
2013-07-14 15:51:00,87.1,77.4,30.00,South,185,0.0,4.0,73,0.00,,,0.01,WeatherCatV1.15B25,2013-07-14 19:51:00,
2013-07-14 15:56:00,87.6,77.4,30.00,SW,219,0.0,7.0,72,0.00,,,0.01,WeatherCatV1.15B25,2013-07-14 19:56:00,
2013-07-14 16:01:00,88.1,77.5,30.00,SSW,209,1.0,3.0,71,0.00,,,0.01,WeatherCatV1.15B25,2013-07-14 20:01:00,
2013-07-14 16:06:00,88.5,77.4,30.01,South,182,0.0,4.0,70,0.00,,,0.01,WeatherCatV1.15B25,2013-07-14 20:06:00,
2013-07-14 16:11:00,89.0,78.3,30.01,East,97,0.0,2.0,71,0.00,,,0.01,WeatherCatV1.15B25,2013-07-14 20:11:00,
2013-07-14 16:16:00,89.4,77.9,30.01,South,185,2.0,3.0,69,0.00,,,0.01,WeatherCatV1.15B25,2013-07-14 20:16:00,
2013-07-14 16:21:00,89.1,77.6,30.01,SSW,194,0.0,9.0,69,0.00,,,0.01,WeatherCatV1.15B25,2013-07-14 20:21:00,
2013-07-14 16:26:00,89.0,77.5,30.01,SSE,161,0.0,6.0,69,0.00,,,0.01,WeatherCatV1.15B25,2013-07-14 20:26:00,
2013-07-14 16:31:00,88.8,77.3,30.01,South,169,1.0,5.0,69,0.00,,,0.01,WeatherCatV1.15B25,2013-07-14 20:31:00,
2013-07-14 16:36:00,88.3,76.8,30.00,SW,230,0.0,4.0,69,0.00,,,0.01,WeatherCatV1.15B25,2013-07-14 20:36:00,
2013-07-14 16:41:00,88.5,77.0,30.00,ESE,122,4.0,6.0,69,0.00,,,0.01,WeatherCatV1.15B25,2013-07-14 20:41:00,
2013-07-14 16:46:00,88.1,77.1,30.01,SSW,193,0.0,7.0,70,0.00,,,0.01,WeatherCatV1.15B25,2013-07-14 20:46:00,
2013-07-14 16:51:00,87.4,77.2,30.01,East,98,1.0,3.0,72,0.00,,,0.01,WeatherCatV1.15B25,2013-07-14 20:51:00,
2013-07-14 16:56:00,87.2,75.8,30.01,ESE,110,10.0,12.0,69,0.00,,,0.01,WeatherCatV1.15B25,2013-07-14 20:56:00,
2013-07-14 17:01:00,85.4,73.6,30.01,East,80,4.0,7.0,68,0.00,,,0.01,WeatherCatV1.15B25,2013-07-14 21:01:00,
2013-07-14 17:06:00,83.8,72.5,30.02,ESE,114,5.0,6.0,69,0.00,,,0.01,WeatherCatV1.15B25,2013-07-14 21:06:00,
2013-07-14 17:11:00,82.5,71.7,30.02,ESE,110,0.0,8.0,70,0.00,,,0.01,WeatherCatV1.15B25,2013-07-14 21:11:00,
2013-07-14 17:16:00,81.7,71.8,30.02,ENE,65,4.0,5.0,72,0.00,,,0.01,WeatherCatV1.15B25,2013-07-14 21:16:00,
2013-07-14 17:21:00,81.3,71.4,30.02,SE,146,1.0,2.0,72,0.00,,,0.01,WeatherCatV1.15B25,2013-07-14 21:21:00,
2013-07-14 17:26:00,81.1,71.2,30.02,ESE,122,0.0,2.0,72,0.00,,,0.01,WeatherCatV1.15B25,2013-07-14 21:26:00,
2013-07-14 17:31:00,81.1,71.2,30.03,East,90,2.0,2.0,72,0.00,,,0.01,WeatherCatV1.15B25,2013-07-14 21:31:00,
2013-07-14 17:36:00,81.1,72.0,30.02,NE,53,0.0,2.0,74,0.00,,,0.01,WeatherCatV1.15B25,2013-07-14 21:36:00,
2013-07-14 17:41:00,81.1,72.0,30.02,East,94,1.0,4.0,74,0.00,,,0.01,WeatherCatV1.15B25,2013-07-14 21:41:00,
2013-07-14 17:46:00,81.1,72.4,30.02,ESE,115,3.0,5.0,75,0.00,,,0.01,WeatherCatV1.15B25,2013-07-14 21:46:00,
2013-07-14 17:51:00,81.1,72.4,30.02,ESE,111,1.0,4.0,75,0.00,,,0.01,WeatherCatV1.15B25,2013-07-14 21:51:00,
2013-07-14 17:56:00,80.9,72.6,30.03,ESE,109,0.0,4.0,76,0.00,,,0.01,WeatherCatV1.15B25,2013-07-14 21:56:00,
2013-07-14 18:01:00,80.7,73.2,30.02,ESE,107,3.0,4.0,78,0.00,,,0.01,WeatherCatV1.15B25,2013-07-14 22:01:00,
2013-07-14 18:06:00,80.4,73.6,30.02,East,101,0.0,2.0,80,0.00,,,0.01,WeatherCatV1.15B25,2013-07-14 22:06:00,
2013-07-14 18:11:00,80.3,73.9,30.02,East,101,1.0,4.0,81,0.00,,,0.01,WeatherCatV1.15B25,2013-07-14 22:11:00,
2013-07-14 18:16:00,80.0,74.0,30.02,ESE,123,0.0,6.0,82,0.00,,,0.01,WeatherCatV1.15B25,2013-07-14 22:16:00,
2013-07-14 18:21:00,79.8,74.5,30.02,East,101,1.0,4.0,84,0.00,,,0.01,WeatherCatV1.15B25,2013-07-14 22:21:00,
2013-07-14 18:26:00,79.5,74.2,30.02,ESE,103,4.0,6.0,84,0.00,,,0.01,WeatherCatV1.15B25,2013-07-14 22:26:00,
2013-07-14 18:31:00,79.3,74.7,30.01,East,81,0.0,4.0,86,0.00,,,0.01,WeatherCatV1.15B25,2013-07-14 22:31:00,
2013-07-14 18:36:00,79.2,74.3,30.01,SE,127,1.0,3.0,85,0.00,,,0.01,WeatherCatV1.15B25,2013-07-14 22:36:00,
2013-07-14 18:41:00,79.2,74.3,30.01,ESE,102,3.0,4.0,85,0.00,,,0.01,WeatherCatV1.15B25,2013-07-14 22:41:00,
2013-07-14 18:46:00,79.1,74.2,30.02,East,96,6.0,6.0,85,0.00,,,0.01,WeatherCatV1.15B25,2013-07-14 22:46:00,
2013-07-14 18:51:00,79.1,73.8,30.02,East,97,2.0,3.0,84,0.00,,,0.01,WeatherCatV1.15B25,2013-07-14 22:51:00,
2013-07-14 18:56:00,79.2,73.9,30.02,ESE,102,0.0,6.0,84,0.00,,,0.01,WeatherCatV1.15B25,2013-07-14 22:56:00,
2013-07-14 19:01:00,79.2,73.6,30.02,ESE,112,1.0,5.0,83,0.00,,,0.01,WeatherCatV1.15B25,2013-07-14 23:01:00,
2013-07-14 19:06:00,79.2,73.9,30.02,SE,126,2.0,6.0,84,0.00,,,0.01,WeatherCatV1.15B25,2013-07-14 23:06:00,
2013-07-14 19:11:00,79.1,73.5,30.02,SE,124,1.0,4.0,83,0.00,,,0.01,WeatherCatV1.15B25,2013-07-14 23:11:00,
2013-07-14 19:16:00,79.0,73.7,30.02,ESE,109,1.0,5.0,84,0.00,,,0.01,WeatherCatV1.15B25,2013-07-14 23:16:00,
2013-07-14 19:21:00,78.7,73.1,30.02,East,94,1.0,6.0,83,0.00,,,0.01,WeatherCatV1.15B25,2013-07-14 23:21:00,
2013-07-14 19:26:00,78.3,72.0,30.02,ESE,103,5.0,5.0,81,0.00,,,0.01,WeatherCatV1.15B25,2013-07-14 23:26:00,
2013-07-14 19:31:00,78.0,71.7,30.02,SE,134,1.0,2.0,81,0.00,,,0.01,WeatherCatV1.15B25,2013-07-14 23:31:00,
2013-07-14 19:36:00,77.8,71.5,30.02,ESE,110,0.0,2.0,81,0.00,,,0.01,WeatherCatV1.15B25,2013-07-14 23:36:00,
2013-07-14 19:41:00,77.7,71.4,30.02,ESE,108,4.0,5.0,81,0.00,,,0.01,WeatherCatV1.15B25,2013-07-14 23:41:00,
2013-07-14 19:46:00,77.6,71.3,30.03,SE,132,0.0,1.0,81,0.00,,,0.01,WeatherCatV1.15B25,2013-07-14 23:46:00,
2013-07-14 19:51:00,77.6,71.3,30.03,East,99,2.0,2.0,81,0.00,,,0.01,WeatherCatV1.15B25,2013-07-14 23:51:00,
2013-07-14 19:56:00,77.6,71.3,30.03,East,101,2.0,4.0,81,0.00,,,0.01,WeatherCatV1.15B25,2013-07-14 23:56:00,
2013-07-14 20:01:00,77.5,71.2,30.03,ESE,108,0.0,2.0,81,0.00,,,0.01,WeatherCatV1.15B25,2013-07-15 00:01:00,
2013-07-14 20:06:00,77.3,71.0,30.03,ESE,102,0.0,0.0,81,0.00,,,0.01,WeatherCatV1.15B25,2013-07-15 00:06:00,
2013-07-14 20:11:00,77.2,70.9,30.03,East,87,0.0,3.0,81,0.00,,,0.01,WeatherCatV1.15B25,2013-07-15 00:11:00,
2013-07-14 20:16:00,77.1,71.2,30.03,East,82,4.0,5.0,82,0.00,,,0.01,WeatherCatV1.15B25,2013-07-15 00:16:00,
2013-07-14 20:21:00,76.9,71.3,30.03,ENE,75,1.0,4.0,83,0.00,,,0.01,WeatherCatV1.15B25,2013-07-15 00:21:00,
2013-07-14 20:26:00,76.7,71.5,30.04,ENE,70,5.0,5.0,84,0.00,,,0.01,WeatherCatV1.15B25,2013-07-15 00:26:00,
2013-07-14 20:31:00,76.4,71.5,30.04,ESE,112,0.0,2.0,85,0.00,,,0.01,WeatherCatV1.15B25,2013-07-15 00:31:00,
2013-07-14 20:36:00,76.2,71.7,30.04,ESE,105,1.0,4.0,86,0.00,,,0.01,WeatherCatV1.15B25,2013-07-15 00:36:00,
2013-07-14 20:41:00,76.1,71.6,30.04,East,89,1.0,3.0,86,0.00,,,0.01,WeatherCatV1.15B25,2013-07-15 00:41:00,
2013-07-14 20:46:00,76.0,71.8,30.04,East,95,0.0,1.0,87,0.00,,,0.01,WeatherCatV1.15B25,2013-07-15 00:46:00,
2013-07-14 20:51:00,75.9,71.7,30.04,East,91,0.0,1.0,87,0.00,,,0.01,WeatherCatV1.15B25,2013-07-15 00:51:00,
2013-07-14 20:56:00,75.8,72.0,30.04,East,91,0.0,2.0,88,0.00,,,0.01,WeatherCatV1.15B25,2013-07-15 00:56:00,
2013-07-14 21:01:00,75.7,71.9,30.04,East,87,0.0,2.0,88,0.00,,,0.01,WeatherCatV1.15B25,2013-07-15 01:01:00,
2013-07-14 21:06:00,75.7,71.9,30.04,East,87,0.0,1.0,88,0.00,,,0.01,WeatherCatV1.15B25,2013-07-15 01:06:00,
2013-07-14 21:11:00,75.6,71.8,30.04,ESE,112,0.0,2.0,88,0.00,,,0.01,WeatherCatV1.15B25,2013-07-15 01:11:00,
2013-07-14 21:16:00,75.5,71.7,30.04,East,92,2.0,2.0,88,0.00,,,0.01,WeatherCatV1.15B25,2013-07-15 01:16:00,
2013-07-14 21:21:00,75.4,71.6,30.04,East,92,0.0,1.0,88,0.00,,,0.01,WeatherCatV1.15B25,2013-07-15 01:21:00,
2013-07-14 21:26:00,75.3,71.5,30.05,ESE,106,0.0,1.0,88,0.00,,,0.01,WeatherCatV1.15B25,2013-07-15 01:26:00,
2013-07-14 21:31:00,75.2,71.1,30.05,East,88,0.0,3.0,87,0.00,,,0.01,WeatherCatV1.15B25,2013-07-15 01:31:00,
2013-07-14 21:36:00,75.2,71.1,30.06,East,81,1.0,4.0,87,0.00,,,0.01,WeatherCatV1.15B25,2013-07-15 01:36:00,
2013-07-14 21:41:00,75.1,71.0,30.05,East,93,0.0,4.0,87,0.00,,,0.01,WeatherCatV1.15B25,2013-07-15 01:41:00,
2013-07-14 21:46:00,75.0,70.9,30.06,East,98,4.0,6.0,87,0.00,,,0.01,WeatherCatV1.15B25,2013-07-15 01:46:00,
2013-07-14 21:51:00,74.9,70.8,30.06,ENE,69,5.0,6.0,87,0.00,,,0.01,WeatherCatV1.15B25,2013-07-15 01:51:00,
2013-07-14 21:56:00,74.8,70.7,30.06,ENE,78,0.0,6.0,87,0.00,,,0.01,WeatherCatV1.15B25,2013-07-15 01:56:00,
2013-07-14 22:01:00,74.8,70.7,30.06,ENE,72,2.0,5.0,87,0.00,,,0.01,WeatherCatV1.15B25,2013-07-15 02:01:00,
2013-07-14 22:06:00,74.7,70.6,30.06,NNE,27,1.0,6.0,87,0.00,,,0.01,WeatherCatV1.15B25,2013-07-15 02:06:00,
2013-07-14 22:11:00,74.6,70.5,30.06,East,92,2.0,8.0,87,0.00,,,0.01,WeatherCatV1.15B25,2013-07-15 02:11:00,
2013-07-14 22:16:00,74.6,70.8,30.05,ENE,63,5.0,8.0,88,0.00,,,0.01,WeatherCatV1.15B25,2013-07-15 02:16:00,
2013-07-14 22:21:00,74.7,70.9,30.05,ENE,77,0.0,7.0,88,0.00,,,0.01,WeatherCatV1.15B25,2013-07-15 02:21:00,
2013-07-14 22:26:00,74.7,71.2,30.06,ESE,104,0.0,6.0,89,0.00,,,0.01,WeatherCatV1.15B25,2013-07-15 02:26:00,
2013-07-14 22:31:00,74.7,71.2,30.06,ENE,75,0.0,5.0,89,0.00,,,0.01,WeatherCatV1.15B25,2013-07-15 02:31:00,
2013-07-14 22:36:00,74.7,71.6,30.06,ESE,115,2.0,4.0,90,0.00,,,0.01,WeatherCatV1.15B25,2013-07-15 02:36:00,
2013-07-14 22:41:00,74.7,71.6,30.06,ENE,73,5.0,6.0,90,0.00,,,0.01,WeatherCatV1.15B25,2013-07-15 02:41:00,
2013-07-14 22:46:00,74.7,71.6,30.06,ESE,111,2.0,7.0,90,0.00,,,0.01,WeatherCatV1.15B25,2013-07-15 02:46:00,
2013-07-14 22:51:00,74.7,71.9,30.07,ENE,74,6.0,7.0,91,0.00,,,0.01,WeatherCatV1.15B25,2013-07-15 02:51:00,
2013-07-14 22:56:00,74.7,71.9,30.07,ESE,113,2.0,5.0,91,0.00,,,0.01,WeatherCatV1.15B25,2013-07-15 02:56:00,
2013-07-14 23:01:00,74.8,72.0,30.06,ESE,107,2.0,5.0,91,0.00,,,0.01,WeatherCatV1.15B25,2013-07-15 03:01:00,
2013-07-14 23:06:00,74.8,72.0,30.06,East,86,2.0,6.0,91,0.00,,,0.01,WeatherCatV1.15B25,2013-07-15 03:06:00,
2013-07-14 23:11:00,74.9,72.1,30.06,ESE,105,0.0,5.0,91,0.00,,,0.01,WeatherCatV1.15B25,2013-07-15 03:11:00,
2013-07-14 23:16:00,74.9,72.1,30.06,ENE,68,5.0,5.0,91,0.00,,,0.01,WeatherCatV1.15B25,2013-07-15 03:16:00,
2013-07-14 23:21:00,74.9,72.1,30.06,ENE,76,2.0,6.0,91,0.00,,,0.01,WeatherCatV1.15B25,2013-07-15 03:21:00,
2013-07-14 23:26:00,74.9,72.1,30.06,ENE,69,3.0,7.0,91,0.00,,,0.01,WeatherCatV1.15B25,2013-07-15 03:26:00,
2013-07-14 23:31:00,74.9,72.1,30.06,ESE,117,0.0,4.0,91,0.00,,,0.01,WeatherCatV1.15B25,2013-07-15 03:31:00,
2013-07-14 23:36:00,74.9,72.1,30.05,ENE,72,3.0,4.0,91,0.00,,,0.01,WeatherCatV1.15B25,2013-07-15 03:36:00,
2013-07-14 23:41:00,75.0,71.9,30.06,East,98,2.0,4.0,90,0.00,,,0.01,WeatherCatV1.15B25,2013-07-15 03:41:00,
2013-07-14 23:46:00,74.9,71.8,30.06,SE,142,1.0,2.0,90,0.00,,,0.01,WeatherCatV1.15B25,2013-07-15 03:46:00,
2013-07-14 23:51:00,74.9,71.8,30.06,SE,144,3.0,6.0,90,0.00,,,0.01,WeatherCatV1.15B25,2013-07-15 03:51:00,
2013-07-14 23:56:00,74.9,71.8,30.06,ESE,114,0.0,6.0,90,0.00,,,0.01,WeatherCatV1.15B25,2013-07-15 03:56:00,